Location: Sternwarte Hubelmatt
(47.0367°N, 8.3053°E)
Time: 20:57:05
(UTC+02:00)

UWE-3 - Pass Details

Date: 03 May 2024
Orbit: 569 x 652 km, 97.8° (Epoch: 19 May)

Event Time Altitude Azimuth Distance (km) Brightness Sun altitude
Rises 04:02:21 0° 14° (NNE) 2,905 ? -17.8°
Reaches altitude 10° 04:04:31 10° 15° (NNE) 2,007 ? -17.6°
Maximum altitude 04:08:55 81° 103° (ESE) 649 ? -17.1°
Enters shadow 04:11:25 26° 189° (S) 1,267 ? -16.8°
